FW1312 Weather Reports


Display with metric or nautical units.
time (UTC)temp
F
wind
direction
speed
MPH
gust
MPH
rain 1hr
in
rain 24hr
in
rain mn
in
humidity
%
barometer
mb
20260505013007 75 159 5.0 12.0 0.00 0.00 0.00 68 1008.2
20260505011501 75 162 6.0 17.0 0.00 0.00 0.00 68 1008.1
20260505010034 76 159 5.0 10.0 0.00 0.00 0.00 67 1008.0
20260505004544 76 150 5.0 13.0 0.00 0.00 0.00 67 1007.9
20260505003033 77 140 5.0 12.0 0.00 0.00 0.00 67 1008.0
20260505001528 77 188 4.0 14.0 0.00 0.00 0.00 67 1008.3
20260505000117 78 161 8.0 15.0 0.00 0.00 0.00 67 1008.3
20260504234530 79 177 6.0 15.0 0.00 0.00 0.00 67 1008.5
20260504233022 79 221 7.0 15.0 0.00 0.00 0.00 67 1008.5
20260504231515 79 138 7.0 14.0 0.00 0.00 0.00 67 1008.5
20260504230044 79 163 6.0 12.0 0.00 0.00 0.00 67 1008.6
20260504224522 79 150 8.0 16.0 0.00 0.00 0.00 67 1008.9
20260504223020 79 131 8.0 15.0 0.00 0.00 0.00 67 1009.0
20260504221509 78 186 5.0 17.0 0.00 0.00 0.00 67 1009.0
20260504220025 78 147 5.0 18.0 0.00 0.00 0.00 67 1009.2
20260504214506 79 127 5.0 15.0 0.00 0.00 0.00 67 1009.3
20260504213104 78 221 5.0 14.0 0.00 0.00 0.00 67 1009.7
20260504211619 79 188 8.0 14.0 0.00 0.00 0.00 67 1009.9
20260504210024 79 195 8.0 14.0 0.00 0.00 0.00 68 1010.3
20260504204555 79 217 7.0 17.0 0.00 0.00 0.00 67 1010.7
20260504203005 79 211 10.0 20.0 0.00 0.00 0.00 68 1010.8
20260504201529 78 150 4.0 16.0 0.00 0.00 0.00 68 1011.0
20260504200019 78 185 5.0 16.0 0.00 0.00 0.00 68 1011.1
20260504194513 78 199 5.0 13.0 0.00 0.00 0.00 69 1011.7
20260504193056 78 219 5.0 11.0 0.00 0.00 0.00 69 1011.9
20260504191526 78 192 5.0 16.0 0.00 0.00 0.00 70 1012.1
20260504190045 78 173 5.0 17.0 0.00 0.00 0.00 70 1012.2
20260504184608 78 226 8.0 20.0 0.00 0.00 0.00 71 1012.4
20260504183028 78 229 6.0 16.0 0.00 0.00 0.00 72 1012.8
20260504181528 77 139 6.0 19.0 0.00 0.00 0.00 72 1012.7
20260504180023 77 186 7.0 20.0 0.00 0.00 0.00 73 1013.1
20260504174602 76 164 8.0 15.0 0.00 0.00 0.00 74 1013.3
20260504173012 76 227 8.0 16.0 0.00 0.00 0.00 74 1013.5
20260504171525 75 199 5.0 19.0 0.00 0.00 0.00 75 1013.6
20260504033057 62 180 2.0 5.0 0.00 0.00 0.00 60 1017.1
20260504031540 63 190 2.0 5.0 0.00 0.00 0.00 59 1017.1
20260504030030 63 188 2.0 5.0 0.00 0.00 0.00 59 1017.1
20260504024508 64 183 2.0 5.0 0.00 0.00 0.00 58 1017.0
20260504023013 64 180 2.0 6.0 0.00 0.00 0.00 58 1016.9
20260504021509 65 192 2.0 4.0 0.00 0.00 0.00 58 1016.8
20260504020046 66 168 2.0 4.0 0.00 0.00 0.00 57 1016.7
20260504014517 67 163 2.0 5.0 0.00 0.00 0.00 57 1016.6